| time (UTC) | temp F | wind direction | speed MPH | gust MPH | rain 1hr in | rain 24hr in | rain mn in | humidity % | barometer mb |
| 20260510140035 | 46 | 71 | 2.0 | 7.0 | 0.00 | 0.11 | 0.05 | 57 | 1010.7 |
| 20260510134534 | 46 | 293 | 4.0 | 11.0 | 0.00 | 0.11 | 0.05 | 43 | 1010.5 |
| 20260510133023 | 46 | 13 | 9.0 | 18.0 | 0.00 | 0.16 | 0.05 | 45 | 1010.5 |
| 20260510131519 | 51 | 225 | 0.0 | 4.0 | 0.00 | 0.16 | 0.05 | 12 | 1009.8 |
| 20260510130015 | 50 | 212 | 1.0 | 4.0 | 0.00 | 0.16 | 0.05 | 10 | 1009.5 |
| 20260510124510 | 50 | 173 | 0.0 | 3.0 | 0.00 | 0.16 | 0.05 | 10 | 1009.4 |
| 20260510123005 | 49 | 151 | 0.0 | 2.0 | 0.00 | 0.19 | 0.05 | 10 | 1009.3 |
| 20260510121601 | 49 | 198 | 0.0 | 3.0 | 0.00 | 0.19 | 0.05 | 11 | 1009.1 |
| 20260510120054 | 48 | 296 | 0.0 | 2.0 | 0.00 | 0.19 | 0.05 | 12 | 1008.8 |
| 20260510114551 | 48 | 119 | 0.0 | 0.0 | 0.00 | 0.19 | 0.05 | 13 | 1008.5 |
| 20260510113045 | 47 | 119 | 0.0 | 0.0 | 0.00 | 0.20 | 0.05 | 14 | 1008.6 |
| 20260510111559 | 47 | 119 | 0.0 | 0.0 | 0.00 | 0.20 | 0.05 | 14 | 1008.4 |
| 20260510110039 | 46 | 119 | 0.0 | 0.0 | 0.00 | 0.20 | 0.05 | 16 | 1007.9 |
| 20260510104534 | 46 | 119 | 0.0 | 0.0 | 0.00 | 0.20 | 0.05 | 16 | 1007.7 |
| 20260510103027 | 46 | 119 | 0.0 | 0.0 | 0.00 | 0.21 | 0.05 | 18 | 1007.6 |
| 20260510101523 | 45 | 119 | 0.0 | 0.0 | 0.00 | 0.21 | 0.05 | 20 | 1007.7 |
| 20260510100018 | 45 | 119 | 0.0 | 0.0 | 0.00 | 0.21 | 0.05 | 21 | 1007.5 |
| 20260510094514 | 45 | 119 | 0.0 | 0.0 | 0.00 | 0.21 | 0.05 | 22 | 1007.4 |
| 20260510093058 | 45 | 120 | 0.0 | 1.0 | 0.00 | 0.22 | 0.05 | 22 | 1007.0 |
| 20260510091536 | 45 | 161 | 0.0 | 1.0 | 0.00 | 0.22 | 0.05 | 26 | 1006.8 |
| 20260510090039 | 46 | 146 | 0.0 | 0.0 | 0.00 | 0.22 | 0.05 | 27 | 1006.6 |
| 20260510084522 | 46 | 134 | 0.0 | 0.0 | 0.00 | 0.22 | 0.05 | 29 | 1006.5 |
| 20260510083015 | 47 | 134 | 0.0 | 3.0 | 0.00 | 0.22 | 0.05 | 28 | 1006.5 |
| 20260510081510 | 47 | 116 | 0.0 | 0.0 | 0.00 | 0.22 | 0.05 | 30 | 1006.6 |
| 20260510080006 | 48 | 360 | 0.0 | 2.0 | 0.00 | 0.22 | 0.05 | 93 | 1006.4 |
| 20260510074503 | 49 | 360 | 0.0 | 3.0 | 0.00 | 0.22 | 0.05 | 92 | 1006.4 |
| 20260510073059 | 49 | 360 | 2.0 | 4.0 | 0.00 | 0.22 | 0.05 | 93 | 1006.5 |
| 20260510071554 | 49 | 360 | 0.0 | 2.0 | 0.01 | 0.22 | 0.05 | 93 | 1006.6 |
| 20260510070050 | 50 | 140 | 1.0 | 7.0 | 0.01 | 0.22 | 0.05 | 31 | 1006.6 |
| 20260510064559 | 50 | 170 | 2.0 | 5.0 | 0.01 | 0.22 | 0.05 | 29 | 1006.6 |
| 20260510063041 | 50 | 172 | 1.0 | 4.0 | 0.02 | 0.22 | 0.05 | 29 | 1006.6 |
| 20260510061537 | 50 | 163 | 2.0 | 5.0 | 0.01 | 0.21 | 0.04 | 32 | 1007.0 |
| 20260510060012 | 51 | 133 | 1.0 | 5.0 | 0.01 | 0.21 | 0.04 | 37 | 1007.1 |
| 20260510054506 | 51 | 148 | 2.0 | 6.0 | 0.01 | 0.21 | 0.04 | 41 | 1007.7 |
| 20260510053032 | 51 | 165 | 3.0 | 7.0 | 0.00 | 0.20 | 0.03 | 40 | 1008.0 |
| 20260510051528 | 51 | 161 | 5.0 | 9.0 | 0.00 | 0.20 | 0.03 | 37 | 1007.9 |
| 20260510050021 | 50 | 184 | 4.0 | 9.0 | 0.00 | 0.20 | 0.03 | 34 | 1007.7 |
| 20260510044519 | 50 | 166 | 0.0 | 6.0 | 0.00 | 0.20 | 0.03 | 33 | 1007.2 |
| 20260510043020 | 50 | 247 | 0.0 | 0.0 | 0.00 | 0.20 | 0.03 | 35 | 1006.8 |
| 20260510041511 | 50 | 145 | 0.0 | 2.0 | 0.00 | 0.20 | 0.03 | 36 | 1006.7 |
| 20260510040009 | 50 | 173 | 1.0 | 5.0 | 0.00 | 0.20 | 0.03 | 33 | 1006.7 |
| 20260510034532 | 49 | 157 | 0.0 | 5.0 | 0.00 | 0.20 | 0.03 | 36 | 1006.7 |
| 20260510033028 | 50 | 136 | 1.0 | 5.0 | 0.00 | 0.20 | 0.03 | 41 | 1006.6 |
| 20260510031524 | 50 | 167 | 3.0 | 9.0 | 0.00 | 0.20 | 0.03 | 31 | 1006.5 |
| 20260510030027 | 49 | 156 | 1.0 | 5.0 | 0.00 | 0.20 | 0.03 | 34 | 1006.4 |
| 20260510024513 | 50 | 147 | 1.0 | 5.0 | 0.00 | 0.20 | 0.03 | 36 | 1006.3 |
| 20260510023007 | 50 | 134 | 0.0 | 0.0 | 0.00 | 0.20 | 0.03 | 37 | 1006.2 |
| 20260510021601 | 50 | 144 | 1.0 | 3.0 | 0.00 | 0.20 | 0.03 | 37 | 1006.3 |
| 20260510020057 | 50 | 150 | 0.0 | 3.0 | 0.00 | 0.20 | 0.03 | 39 | 1006.5 |
| 20260510014553 | 50 | 148 | 0.0 | 2.0 | 0.00 | 0.20 | 0.03 | 44 | 1006.2 |
| 20260510013049 | 51 | 150 | 1.0 | 3.0 | 0.00 | 0.20 | 0.03 | 50 | 1006.2 |
| 20260510011514 | 52 | 174 | 0.0 | 3.0 | 0.00 | 0.20 | 0.03 | 51 | 1006.1 |
| 20260510010009 | 52 | 218 | 0.0 | 2.0 | 0.00 | 0.20 | 0.03 | 46 | 1006.0 |
| 20260510004502 | 52 | 175 | 0.0 | 1.0 | 0.00 | 0.20 | 0.03 | 46 | 1005.8 |
| 20260510003100 | 52 | 175 | 0.0 | 2.0 | 0.00 | 0.20 | 0.03 | 47 | 1005.9 |
| 20260510001556 | 52 | 163 | 0.0 | 0.0 | 0.00 | 0.20 | 0.03 | 49 | 1005.9 |
| 20260510000050 | 53 | 163 | 0.0 | 1.0 | 0.00 | 0.20 | 0.03 | 50 | 1005.7 |
| 20260509234547 | 53 | 146 | 0.0 | 2.0 | 0.00 | 0.20 | 0.03 | 52 | 1005.7 |
| 20260509233039 | 53 | 161 | 1.0 | 3.0 | 0.00 | 0.20 | 0.03 | 56 | 1005.6 |
| 20260509231539 | 53 | 201 | 1.0 | 6.0 | 0.00 | 0.20 | 0.03 | 58 | 1005.4 |
| 20260509230032 | 53 | 167 | 2.0 | 7.0 | 0.00 | 0.20 | 0.03 | 58 | 1005.3 |
| 20260509224529 | 53 | 196 | 7.0 | 14.0 | 0.00 | 0.20 | 0.03 | 57 | 1005.1 |
| 20260509223021 | 53 | 189 | 4.0 | 7.0 | 0.00 | 0.20 | 0.03 | 55 | 1005.2 |
| 20260509221519 | 53 | 177 | 4.0 | 10.0 | 0.00 | 0.20 | 0.03 | 54 | 1005.2 |
| 20260509220015 | 53 | 159 | 5.0 | 12.0 | 0.00 | 0.20 | 0.03 | 55 | 1005.2 |
| 20260509214508 | 53 | 184 | 4.0 | 9.0 | 0.00 | 0.20 | 0.03 | 53 | 1005.5 |
| 20260509213004 | 53 | 176 | 3.0 | 8.0 | 0.00 | 0.20 | 0.03 | 46 | 1005.7 |
| 20260509211602 | 52 | 172 | 5.0 | 8.0 | 0.00 | 0.20 | 0.03 | 38 | 1005.7 |
| 20260509210057 | 52 | 173 | 4.0 | 8.0 | 0.00 | 0.20 | 0.03 | 39 | 1005.9 |
| 20260509204550 | 52 | 161 | 3.0 | 7.0 | 0.00 | 0.20 | 0.03 | 41 | 1005.9 |
| 20260509203106 | 52 | 175 | 4.0 | 7.0 | 0.00 | 0.20 | 0.03 | 42 | 1006.1 |
| 20260509201540 | 51 | 175 | 5.0 | 7.0 | 0.00 | 0.20 | 0.03 | 38 | 1006.1 |
| 20260509200036 | 51 | 170 | 4.0 | 9.0 | 0.00 | 0.20 | 0.03 | 33 | 1006.2 |
| 20260509194502 | 51 | 181 | 2.0 | 5.0 | 0.00 | 0.20 | 0.03 | 31 | 1006.4 |
| 20260509193131 | 51 | 200 | 2.0 | 7.0 | 0.00 | 0.20 | 0.03 | 32 | 1006.6 |
| 20260509191526 | 51 | 180 | 3.0 | 10.0 | 0.00 | 0.20 | 0.03 | 37 | 1006.6 |
| 20260509190019 | 51 | 178 | 5.0 | 9.0 | 0.00 | 0.20 | 0.03 | 45 | 1006.7 |
| 20260509184513 | 52 | 177 | 5.0 | 8.0 | 0.00 | 0.20 | 0.03 | 50 | 1006.8 |
| 20260509183013 | 52 | 158 | 5.0 | 10.0 | 0.00 | 0.20 | 0.03 | 52 | 1006.8 |
| 20260509181502 | 52 | 156 | 7.0 | 12.0 | 0.00 | 0.20 | 0.03 | 50 | 1006.8 |
| 20260509180106 | 52 | 175 | 7.0 | 12.0 | 0.01 | 0.20 | 0.03 | 41 | 1006.8 |
| 20260509174551 | 51 | 172 | 4.0 | 10.0 | 0.01 | 0.20 | 0.03 | 36 | 1006.7 |
| 20260509173046 | 51 | 135 | 4.0 | 8.0 | 0.01 | 0.20 | 0.03 | 31 | 1006.7 |
| 20260509171541 | 51 | 191 | 6.0 | 11.0 | 0.01 | 0.20 | 0.03 | 31 | 1006.8 |
| 20260509170037 | 51 | 202 | 7.0 | 12.0 | 0.00 | 0.19 | 0.02 | 28 | 1007.0 |
| 20260509164533 | 51 | 142 | 6.0 | 12.0 | 0.01 | 0.19 | 0.02 | 22 | 1007.1 |
| 20260509163058 | 50 | 232 | 6.0 | 12.0 | 0.02 | 0.25 | 0.02 | 16 | 1007.3 |
| 20260509161557 | 50 | 168 | 4.0 | 10.0 | 0.02 | 0.25 | 0.02 | 13 | 1007.6 |
| 20260509160019 | 50 | 169 | 2.0 | 7.0 | 0.04 | 0.25 | 0.02 | 11 | 1007.7 |
| 20260509154520 | 49 | 141 | 1.0 | 3.0 | 0.03 | 0.24 | 0.01 | 10 | 1008.0 |
| 20260509153012 | 48 | 87 | 0.0 | 0.0 | 0.03 | 0.23 | 0.23 | 11 | 1008.3 |
| 20260509151503 | 46 | 10 | 0.0 | 0.0 | 0.03 | 0.22 | 0.22 | 15 | 1008.5 |
| 20260509150058 | 46 | 29 | 0.0 | 0.0 | 0.02 | 0.21 | 0.21 | 15 | 1008.6 |
| 20260509144604 | 46 | 31 | 0.0 | 0.0 | 0.03 | 0.21 | 0.21 | 16 | 1008.8 |
| 20260509143055 | 45 | 355 | 1.0 | 2.0 | 0.03 | 0.20 | 0.20 | 17 | 1008.9 |
| 20260509141555 | 44 | 28 | 0.0 | 2.0 | 0.03 | 0.19 | 0.19 | 18 | 1008.8 |